This demonstration page uses our WeatherBlox Daily Observations layout. Learn more.

41.55636, -103.73856

Hourly Observations for August 15, 2019

Temp ( °F °C ) Dew Point ( °F °C ) Humidity (%) Winds ( mph kmh ) Pressure ( in mb ) Visibility ( mi km ) Precip ( " mm )
12:53 am 00:53 Clear 59 15 58 14.4 96 96 ESE 8 13 29.97 1015 10 16.09344 0 0
1:53 am 01:53 Clear 58 14.4 57 13.9 97 97 E 8 13 29.94 1014 10 16.09344 0 0
2:53 am 02:53 Clear 58 14.4 57 13.9 97 97 E 6 9 29.91 1013 10 16.09344 0 0
3:53 am 03:53 Mostly Clear 59 15 58 14.4 96 96 NE 16 26 29.91 1013 10 16.09344 0 0
4:03 am 04:03 Partly Cloudy 61 16.1 59 15 93 93 NE 16 26 29.94 1014 10 16.09344 0 0
4:18 am 04:18 Mostly Cloudy 61 16 59 15 94 94 NE 18 30 29.94 1014 10 16.09344 0 0
4:29 am 04:29 Mostly Cloudy 61 16.1 58 14.4 90 90 ENE 20 31 29.94 1014 10 16.09344 0 0
4:36 am 04:36 Mostly Cloudy 61 16 57 14 88 88 ENE 18 30 29.94 1014 10 16.09344 0 0
4:45 am 04:45 Partly Cloudy 60 15.6 58 14.4 93 93 ENE 17 28 29.94 1014 10 16.09344 0 0
4:53 am 04:53 Mostly Clear 60 15.6 58 14.4 93 93 ENE 17 28 29.94 1014 10 16.09344 0 0
5:53 am 05:53 Cloudy 61 16.1 58 14.4 90 90 E 14 22 29.97 1015 10 16.09344 0 0
6:53 am 06:53 Mostly Cloudy 60 15.6 58 14.4 93 93 E 8 13 30 1016 10 16.09344 0 0
7:04 am 07:04 Mostly Cloudy 61 16.1 58 14.4 90 90 E 8 13 30 1016 10 16.09344 0 0
7:41 am 07:41 Cloudy 62 16.7 57 13.9 84 84 ESE 7 11 30 1016 10 16.09344 0 0
7:53 am 07:53 Cloudy 62 16.7 57 13.9 84 84 SSE 9 15 30 1016 10 16.09344 0 0
8:20 am 08:20 Partly Cloudy 64 18 57 14 78 78 S 8 13 29.97 1015 10 16.09344 0 0
8:53 am 08:53 Sunny 67 19.4 58 14.4 73 73 SSE 9 15 29.97 1015 10 16.09344 0 0
9:16 am 09:16 Mostly Cloudy 66 19 61 16 83 83 SSW 12 19 29.91 1013 10 16.09344 0 0
9:39 am 09:39 Partly Cloudy 70 21.1 60 15.6 71 71 SW 10 17 29.88 1012 10 16.09344 0 0
9:53 am 09:53 Partly Cloudy 69 20.6 60 15.6 73 73 SW 7 11 29.97 1015 10 16.09344 0 0
10:53 am 10:53 Mostly Cloudy 73 22.8 61 16.1 66 66 WNW 7 11 29.97 1015 10 16.09344 0 0
11:05 am 11:05 Partly Cloudy 74 23.3 61 16.1 64 64 W 8 13 29.85 1011 10 16.09344 0 0
11:53 am 11:53 Sunny 76 24.4 62 16.7 62 62 W 9 15 29.94 1014 10 16.09344 0 0
12:53 pm 12:53 Sunny 78 25.6 61 16.1 56 56 VRB 5 7 29.91 1013 10 16.09344 0 0
1:53 pm 13:53 Sunny 82 27.8 60 15.6 47 47 VRB 6 9 29.88 1012 10 16.09344 0 0
2:53 pm 14:53 Sunny 86 30 61 16.1 43 43 SE 14 22 29.85 1011 10 16.09344 0 0
3:27 pm 15:27 Sunny with Nearby Thunderstorms 81 27.2 59 15 47 47 ESE 15 24 29.68 1005 10 16.09344 0 0
3:40 pm 15:40 Partly Cloudy with Thunderstorms 79 26 59 15 51 51 ESE 13 20 29.71 1006 10 16.09344 0 0
3:49 pm 15:49 Windy with Storms Likely 66 19 61 16 83 83 WNW 28 44 29.91 1013 0.75 1.207008 0.03 0.762
3:53 pm 15:53 Mostly Cloudy with Heavy Thunderstorms 63 17.2 59 15 87 87 WSW 20 31 29.97 1015 0.5 0.804672 0.19 4.826
4:00 pm 16:00 Cloudy with Light Thunderstorms 66 19 61 16 83 83 ENE 13 20 29.85 1011 3 4.828032 0 0
4:15 pm 16:15 Partly Cloudy with Thunderstorms 71 21.7 65 18.3 81 81 E 8 13 29.83 1010 10 16.09344 0.06 1.524
4:24 pm 16:24 Partly Cloudy with Nearby Thunderstorms 75 23.9 68 20 79 79 ESE 8 13 29.8 1009 10 16.09344 0.06 1.524
4:35 pm 16:35 Sunny 75 23.9 64 17.8 69 69 ESE 15 24 29.8 1009 10 16.09344 0.06 1.524
4:53 pm 16:53 Sunny 73 22.8 62 16.7 69 69 E 7 11 29.91 1013 10 16.09344 0.06 1.524
5:53 pm 17:53 Sunny 75 23.9 62 16.7 64 64 ENE 6 9 29.88 1012 10 16.09344 0 0
6:53 pm 18:53 Sunny 75 23.9 61 16.1 62 62 ENE 8 13 29.88 1012 10 16.09344 0 0
7:53 pm 19:53 Sunny 68 20 60 15.6 76 76 E 6 9 29.91 1013 10 16.09344 0 0
8:53 pm 20:53 Clear 65 18.3 60 15.6 84 84 ESE 6 9 29.91 1013 10 16.09344 0 0
9:53 pm 21:53 Clear 63 17.2 59 15 87 87 E 3 6 29.91 1013 10 16.09344 0 0
10:53 pm 22:53 Clear 62 16.7 58 14.4 86 86 ENE 3 6 29.91 1013 10 16.09344 0 0
11:53 pm 23:53 Clear 62 16.7 58 14.4 86 86 E 8 13 29.85 1011 10 16.09344 0 0

Powered by AerisWeather